Location: Newark
(45.8667°N, 9.7333°E)
Time: 18:03:06
(UTC+00:00)

Transit 4A - Pass Details

Date: 01 February 2020
Orbit: 872 x 973 km, 66.8° (Epoch: 22 February)

Event Time Altitude Azimuth Distance (km) Brightness Sun altitude
Rises 03:36:21 0° 187° (S) 3,543 - -32.7°
Reaches altitude 10° 03:39:01 10° 180° (S) 2,589 - -32.3°
Exits shadow 03:41:52 26° 161° (SSE) 1,700 9.3 -31.8°
Maximum altitude 03:44:31 39° 113° (ESE) 1,309 9.0 -31.3°
Drops below altitude 10° 03:49:57 10° 46° (NE) 2,550 10.8 -30.4°
Sets 03:52:33 0° 39° (NE) 3,484 11.5 -29.9°
